Main page
METAR-TAF:

METAR-TAF

Airports :

Rasht Airport

Rasht, Iran

latitude: 37-12N, longitude: 049-38E, elevation: -7 m

Current weather observation

The report was made 39 minutes ago, at 07:30 UTC
Wind 4 kt from the North
Temperature 31°C
Humidity 55%
Pressure 1012 hPa
Visibility 10 km or more
Few clouds at a height of 3000 ft

METAR: OIGG 250730Z 35004KT 9999 FEW030 31/21 Q1012

Time: 12:39 (08:09 UTC)


TAF: missing

Weather observations and forecasts of more than 4000 airports (METAR and TAF reports).

The available stations are represented by yellow and red dots on the map.

Hover mouse over dot to see the name of the station.

Then click to see weather observations and forecasts.

To change the map : click on the green buttons with a black cross to zoom in, on the green button with a dash to zoom out, or on the green arrows for adjacent maps.


METAR-TAF: